| time (UTC) | temp F | wind direction | speed knots | gust knots | rain 1hr in | rain 24hr in | rain mn in | humidity % | barometer mb |
| 20260509134122 | 60 | 130 | 1.7 | 3.5 | 0.00 | 0.00 | 0.00 | 80 | 1010.6 |
| 20260509133125 | 61 | 132 | 2.6 | 6.1 | 0.00 | 0.00 | 0.00 | 78 | 1010.5 |
| 20260509132121 | 60 | 111 | 0.9 | 2.6 | 0.00 | 0.00 | 0.00 | 81 | 1010.7 |
| 20260509131121 | 59 | 144 | 1.7 | 3.5 | 0.00 | 0.00 | 0.00 | 84 | 1011.0 |
| 20260509130122 | 58 | 199 | 1.7 | 3.5 | 0.00 | 0.00 | 0.00 | 87 | 1011.0 |
| 20260509125121 | 58 | 210 | 0.9 | 3.5 | 0.00 | 0.00 | 0.00 | 87 | 1011.0 |
| 20260509124121 | 58 | 213 | 1.7 | 3.5 | 0.00 | 0.00 | 0.00 | 88 | 1011.1 |
| 20260509123122 | 58 | 176 | 1.7 | 2.6 | 0.00 | 0.00 | 0.00 | 89 | 1010.9 |
| 20260509122121 | 57 | 134 | 0.9 | 2.6 | 0.00 | 0.00 | 0.00 | 88 | 1011.1 |
| 20260509121121 | 57 | 226 | 0.9 | 2.6 | 0.00 | 0.00 | 0.00 | 88 | 1011.1 |
| 20260509120121 | 57 | 214 | 0.9 | 3.5 | 0.00 | 0.00 | 0.00 | 88 | 1011.2 |
| 20260509115121 | 56 | 207 | 1.7 | 3.5 | 0.00 | 0.00 | 0.00 | 88 | 1011.2 |
| 20260509114121 | 56 | 219 | 0.9 | 1.7 | 0.00 | 0.00 | 0.00 | 89 | 1011.1 |
| 20260509113121 | 55 | 177 | 0.9 | 2.6 | 0.00 | 0.00 | 0.00 | 90 | 1011.1 |
| 20260509112121 | 55 | 292 | 0.0 | 2.6 | 0.00 | 0.00 | 0.00 | 91 | 1011.1 |
| 20260509111142 | 54 | 228 | 0.9 | 2.6 | 0.00 | 0.00 | 0.00 | 93 | 1010.8 |
| 20260509110122 | 53 | 203 | 0.9 | 1.7 | 0.00 | 0.00 | 0.00 | 94 | 1010.9 |
| 20260509105121 | 53 | 142 | 0.9 | 1.7 | 0.00 | 0.00 | 0.00 | 95 | 1010.9 |
| 20260509104121 | 53 | 232 | 0.0 | 0.9 | 0.00 | 0.00 | 0.00 | 96 | 1010.8 |
| 20260509103122 | 52 | 221 | 0.0 | 1.7 | 0.00 | 0.00 | 0.00 | 97 | 1010.6 |
| 20260509102122 | 52 | 196 | 0.0 | 1.7 | 0.00 | 0.00 | 0.00 | 98 | 1010.6 |
| 20260509101122 | 52 | 141 | 0.0 | 1.7 | 0.00 | 0.00 | 0.00 | 99 | 1010.6 |
| 20260509100122 | 52 | 143 | 0.0 | 0.9 | 0.00 | 0.00 | 0.00 | 99 | 1010.6 |
| 20260509095122 | 52 | 113 | 0.0 | 0.9 | 0.00 | 0.00 | 0.00 | 99 | 1010.6 |
| 20260509094122 | 52 | 113 | 0.0 | 1.7 | 0.00 | 0.00 | 0.00 | 99 | 1010.4 |
| 20260509093122 | 52 | 207 | 0.9 | 2.6 | 0.00 | 0.00 | 0.00 | 99 | 1010.4 |
| 20260509092146 | 52 | 129 | 0.9 | 2.6 | 0.00 | 0.00 | 0.00 | 99 | 1010.7 |
| 20260509091123 | 52 | 110 | 0.9 | 2.6 | 0.00 | 0.00 | 0.00 | 99 | 1010.6 |
| 20260509090121 | 52 | 103 | 1.7 | 2.6 | 0.00 | 0.00 | 0.00 | 99 | 1010.7 |
| 20260509085121 | 53 | 169 | 0.0 | 1.7 | 0.00 | 0.00 | 0.00 | 98 | 1010.7 |
| 20260509084121 | 53 | 133 | 0.9 | 1.7 | 0.00 | 0.00 | 0.00 | 99 | 1010.6 |
| 20260509083122 | 52 | 135 | 0.9 | 2.6 | 0.00 | 0.00 | 0.00 | 99 | 1010.7 |
| 20260509082121 | 52 | 117 | 0.9 | 2.6 | 0.00 | 0.00 | 0.00 | 99 | 1010.7 |
| 20260509081142 | 52 | 80 | 0.9 | 2.6 | 0.00 | 0.00 | 0.00 | 98 | 1010.9 |
| 20260509080144 | 52 | 103 | 0.9 | 1.7 | 0.00 | 0.00 | 0.00 | 98 | 1011.0 |
| 20260509075144 | 52 | 107 | 0.9 | 1.7 | 0.00 | 0.00 | 0.00 | 97 | 1011.0 |
| 20260509074123 | 52 | 206 | 0.9 | 1.7 | 0.00 | 0.00 | 0.00 | 97 | 1011.0 |
| 20260509073121 | 52 | 175 | 0.9 | 2.6 | 0.00 | 0.00 | 0.00 | 97 | 1010.9 |
| 20260509072123 | 52 | 224 | 0.9 | 1.7 | 0.00 | 0.00 | 0.00 | 98 | 1010.6 |
| 20260509071122 | 52 | 115 | 0.9 | 1.7 | 0.00 | 0.00 | 0.00 | 98 | 1010.5 |
| 20260509070123 | 52 | 108 | 0.9 | 2.6 | 0.00 | 0.00 | 0.00 | 98 | 1010.6 |
| 20260509065143 | 52 | 92 | 0.9 | 2.6 | 0.00 | 0.00 | 0.00 | 98 | 1010.6 |
| 20260509064145 | 52 | 90 | 0.9 | 1.7 | 0.00 | 0.00 | 0.00 | 98 | 1010.7 |
| 20260509063124 | 52 | 89 | 0.9 | 2.6 | 0.00 | 0.00 | 0.00 | 98 | 1011.0 |
| 20260509062122 | 51 | 122 | 0.9 | 1.7 | 0.00 | 0.00 | 0.00 | 99 | 1011.2 |
| 20260509061122 | 51 | 91 | 0.9 | 1.7 | 0.00 | 0.00 | 0.00 | 99 | 1011.5 |
| 20260509060143 | 51 | 88 | 0.9 | 2.6 | 0.00 | 0.00 | 0.00 | 98 | 1011.5 |
| 20260509055122 | 51 | 132 | 0.9 | 2.6 | 0.00 | 0.00 | 0.00 | 98 | 1011.5 |
| 20260509054122 | 51 | 217 | 0.0 | 1.7 | 0.00 | 0.00 | 0.00 | 97 | 1011.5 |
| 20260509053122 | 50 | 218 | 0.0 | 1.7 | 0.00 | 0.00 | 0.00 | 97 | 1011.5 |
| 20260509052122 | 50 | 242 | 0.0 | 1.7 | 0.00 | 0.00 | 0.00 | 97 | 1011.5 |
| 20260509051142 | 50 | 131 | 0.0 | 0.9 | 0.00 | 0.00 | 0.00 | 98 | 1011.2 |
| 20260509050121 | 49 | 113 | 0.0 | 0.0 | 0.00 | 0.00 | 0.00 | 96 | 1011.1 |
| 20260509045142 | 49 | 338 | 0.0 | 0.0 | 0.00 | 0.00 | 0.00 | 95 | 1011.1 |
| 20260509044121 | 49 | 113 | 0.0 | 0.0 | 0.00 | 0.00 | 0.00 | 93 | 1011.2 |
| 20260509043143 | 50 | 23 | 0.0 | 0.0 | 0.00 | 0.00 | 0.00 | 93 | 1011.2 |
| 20260509042121 | 50 | 96 | 0.0 | 1.7 | 0.00 | 0.00 | 0.00 | 93 | 1011.2 |
| 20260509041121 | 51 | 92 | 0.0 | 0.9 | 0.00 | 0.00 | 0.00 | 91 | 1011.2 |
| 20260509040125 | 51 | 97 | 0.0 | 1.7 | 0.00 | 0.00 | 0.00 | 89 | 1011.2 |
| 20260509035125 | 52 | 113 | 0.0 | 0.0 | 0.00 | 0.00 | 0.00 | 87 | 1011.2 |
| 20260509034121 | 52 | 180 | 0.0 | 0.0 | 0.00 | 0.00 | 0.00 | 86 | 1011.5 |
| 20260509033121 | 53 | 23 | 0.0 | 0.0 | 0.00 | 0.00 | 0.00 | 86 | 1011.4 |
| 20260509032121 | 53 | 81 | 0.0 | 1.7 | 0.00 | 0.00 | 0.00 | 86 | 1011.6 |
| 20260509031121 | 53 | 95 | 0.0 | 1.7 | 0.00 | 0.00 | 0.00 | 86 | 1011.6 |
| 20260509030122 | 54 | 208 | 0.0 | 1.7 | 0.00 | 0.00 | 0.00 | 86 | 1011.7 |
| 20260509025126 | 54 | 180 | 0.0 | 1.7 | 0.00 | 0.00 | 0.00 | 85 | 1011.7 |
| 20260509024126 | 54 | 169 | 0.0 | 1.7 | 0.00 | 0.00 | 0.00 | 85 | 1011.7 |
| 20260509023126 | 54 | 176 | 0.9 | 2.6 | 0.00 | 0.00 | 0.00 | 84 | 1011.6 |
| 20260509022122 | 55 | 165 | 0.9 | 2.6 | 0.00 | 0.00 | 0.00 | 83 | 1011.7 |
| 20260509021123 | 55 | 172 | 0.9 | 2.6 | 0.00 | 0.00 | 0.00 | 82 | 1011.5 |
| 20260509020122 | 55 | 295 | 1.7 | 2.6 | 0.00 | 0.00 | 0.00 | 81 | 1011.4 |
| 20260509015122 | 55 | 286 | 1.7 | 2.6 | 0.00 | 0.00 | 0.00 | 81 | 1011.4 |
| 20260509014123 | 55 | 202 | 1.7 | 2.6 | 0.00 | 0.00 | 0.00 | 81 | 1011.2 |
| 20260509013123 | 55 | 255 | 0.9 | 2.6 | 0.00 | 0.00 | 0.00 | 81 | 1011.1 |
| 20260509012123 | 55 | 133 | 0.9 | 3.5 | 0.00 | 0.00 | 0.00 | 80 | 1010.9 |
| 20260509011121 | 55 | 168 | 0.9 | 3.5 | 0.00 | 0.00 | 0.00 | 80 | 1010.7 |
| 20260509010121 | 55 | 196 | 0.9 | 2.6 | 0.00 | 0.00 | 0.00 | 79 | 1010.4 |
| 20260509005121 | 55 | 136 | 1.7 | 4.3 | 0.00 | 0.00 | 0.00 | 78 | 1010.4 |
| 20260509004121 | 56 | 146 | 1.7 | 3.5 | 0.00 | 0.00 | 0.00 | 77 | 1010.4 |
| 20260509003121 | 56 | 149 | 0.9 | 2.6 | 0.00 | 0.00 | 0.00 | 72 | 1010.2 |
| 20260509002121 | 56 | 118 | 0.0 | 1.7 | 0.00 | 0.00 | 0.00 | 70 | 1010.2 |
| 20260509001121 | 56 | 87 | 0.0 | 1.7 | 0.00 | 0.00 | 0.00 | 69 | 1010.2 |
| 20260509000142 | 57 | 90 | 0.0 | 1.7 | 0.00 | 0.00 | 0.00 | 67 | 1010.1 |
| 20260508235121 | 57 | 63 | 0.0 | 2.6 | 0.00 | 0.00 | 0.00 | 65 | 1010.1 |
| 20260508234121 | 58 | 54 | 0.9 | 2.6 | 0.00 | 0.00 | 0.00 | 64 | 1009.8 |
| 20260508233121 | 59 | 83 | 1.7 | 3.5 | 0.00 | 0.00 | 0.00 | 62 | 1009.7 |
| 20260508232121 | 59 | 59 | 2.6 | 5.2 | 0.00 | 0.00 | 0.00 | 62 | 1009.7 |
| 20260508231123 | 60 | 55 | 1.7 | 3.5 | 0.00 | 0.00 | 0.00 | 60 | 1009.6 |
| 20260508230122 | 60 | 280 | 0.9 | 2.6 | 0.00 | 0.00 | 0.00 | 60 | 1009.5 |
| 20260508225122 | 60 | 75 | 1.7 | 2.6 | 0.00 | 0.00 | 0.00 | 60 | 1009.5 |
| 20260508224121 | 60 | 105 | 2.6 | 3.5 | 0.00 | 0.00 | 0.00 | 60 | 1009.6 |
| 20260508223124 | 61 | 352 | 2.6 | 3.5 | 0.00 | 0.00 | 0.00 | 59 | 1009.7 |
| 20260508222143 | 61 | 312 | 2.6 | 4.3 | 0.00 | 0.00 | 0.00 | 59 | 1009.5 |
| 20260508221122 | 62 | 307 | 3.5 | 5.2 | 0.00 | 0.00 | 0.00 | 57 | 1009.4 |
| 20260508220122 | 62 | 351 | 2.6 | 5.2 | 0.00 | 0.00 | 0.00 | 56 | 1009.6 |
| 20260508215123 | 62 | 333 | 2.6 | 6.1 | 0.00 | 0.00 | 0.00 | 57 | 1009.6 |
| 20260508214122 | 61 | 251 | 2.6 | 5.2 | 0.00 | 0.00 | 0.00 | 58 | 1009.7 |
| 20260508213122 | 62 | 333 | 3.5 | 5.2 | 0.00 | 0.00 | 0.00 | 55 | 1009.7 |
| 20260508212123 | 62 | 237 | 2.6 | 4.3 | 0.00 | 0.00 | 0.00 | 55 | 1009.7 |
| 20260508211124 | 63 | 338 | 2.6 | 5.2 | 0.00 | 0.00 | 0.00 | 54 | 1009.7 |
| 20260508210144 | 64 | 308 | 2.6 | 4.3 | 0.00 | 0.00 | 0.00 | 53 | 1009.7 |
| 20260508205122 | 61 | 180 | 2.6 | 4.3 | 0.00 | 0.00 | 0.00 | 57 | 1009.7 |
| 20260508204122 | 61 | 326 | 3.5 | 7.0 | 0.00 | 0.00 | 0.00 | 55 | 1009.7 |
| 20260508203122 | 61 | 329 | 4.3 | 7.0 | 0.00 | 0.00 | 0.00 | 55 | 1009.6 |
| 20260508202142 | 61 | 315 | 3.5 | 7.0 | 0.00 | 0.00 | 0.00 | 58 | 1009.8 |
| 20260508201121 | 60 | 293 | 5.2 | 8.7 | 0.00 | 0.00 | 0.00 | 58 | 1009.4 |
| 20260508200123 | 63 | 282 | 5.2 | 11.3 | 0.00 | 0.00 | 0.00 | 50 | 1009.2 |
| 20260508195124 | 65 | 283 | 3.5 | 7.0 | 0.00 | 0.00 | 0.00 | 44 | 1009.2 |
| 20260508194121 | 65 | 304 | 2.6 | 5.2 | 0.00 | 0.00 | 0.00 | 45 | 1009.2 |
| 20260508193121 | 64 | 273 | 2.6 | 5.2 | 0.00 | 0.00 | 0.00 | 46 | 1009.5 |
| 20260508192121 | 63 | 265 | 2.6 | 6.1 | 0.00 | 0.00 | 0.00 | 46 | 1009.6 |
| 20260508191121 | 63 | 306 | 2.6 | 7.8 | 0.00 | 0.00 | 0.00 | 45 | 1009.6 |
| 20260508190121 | 64 | 260 | 3.5 | 7.0 | 0.00 | 0.00 | 0.00 | 43 | 1009.6 |
| 20260508185121 | 65 | 292 | 3.5 | 7.0 | 0.00 | 0.00 | 0.00 | 42 | 1009.5 |
| 20260508184125 | 66 | 262 | 4.3 | 7.8 | 0.00 | 0.00 | 0.00 | 41 | 1009.5 |
| 20260508183145 | 66 | 268 | 5.2 | 10.4 | 0.00 | 0.00 | 0.00 | 42 | 1009.6 |
| 20260508182122 | 67 | 282 | 4.3 | 7.0 | 0.00 | 0.00 | 0.00 | 40 | 1009.6 |
| 20260508181143 | 70 | 280 | 4.3 | 8.7 | 0.00 | 0.00 | 0.00 | 39 | 1009.7 |
| 20260508180122 | 68 | 277 | 5.2 | 8.7 | 0.00 | 0.00 | 0.00 | 40 | 1009.7 |
| 20260508175123 | 70 | 268 | 4.3 | 8.7 | 0.00 | 0.00 | 0.00 | 38 | 1009.7 |
| 20260508174123 | 68 | 265 | 5.2 | 13.0 | 0.00 | 0.00 | 0.00 | 40 | 1009.7 |
| 20260508173146 | 68 | 239 | 5.2 | 11.3 | 0.00 | 0.00 | 0.00 | 39 | 1009.9 |
| 20260508172122 | 68 | 297 | 5.2 | 13.0 | 0.00 | 0.00 | 0.00 | 41 | 1009.7 |
| 20260508171126 | 67 | 263 | 4.3 | 14.8 | 0.00 | 0.00 | 0.00 | 42 | 1009.9 |
| 20260508171121 | 67 | 262 | 4.3 | 14.8 | 0.00 | 0.00 | 0.00 | 42 | 1009.9 |
| 20260508170122 | 67 | 268 | 4.3 | 11.3 | 0.00 | 0.00 | 0.00 | 40 | 1010.1 |
| 20260508165122 | 67 | 270 | 4.3 | 10.4 | 0.00 | 0.00 | 0.00 | 41 | 1010.1 |
| 20260508164144 | 65 | 267 | 5.2 | 9.6 | 0.00 | 0.00 | 0.00 | 42 | 1010.0 |
| 20260508163122 | 64 | 233 | 6.1 | 10.4 | 0.00 | 0.00 | 0.00 | 42 | 1010.1 |
| 20260508162121 | 65 | 290 | 4.3 | 9.6 | 0.00 | 0.00 | 0.00 | 42 | 1010.2 |
| 20260508161122 | 66 | 283 | 3.5 | 6.1 | 0.00 | 0.00 | 0.00 | 42 | 1010.2 |
| 20260508160122 | 65 | 296 | 5.2 | 11.3 | 0.00 | 0.00 | 0.00 | 42 | 1010.2 |
| 20260508155121 | 65 | 301 | 6.1 | 13.9 | 0.00 | 0.00 | 0.00 | 41 | 1010.2 |
| 20260508154121 | 67 | 306 | 3.5 | 8.7 | 0.00 | 0.00 | 0.00 | 40 | 1010.4 |
| 20260508153123 | 66 | 287 | 3.5 | 7.0 | 0.00 | 0.00 | 0.00 | 41 | 1010.4 |
| 20260508152121 | 66 | 310 | 3.5 | 7.0 | 0.00 | 0.00 | 0.00 | 43 | 1010.5 |
| 20260508151123 | 66 | 298 | 2.6 | 6.1 | 0.00 | 0.00 | 0.00 | 42 | 1010.6 |
| 20260508150121 | 64 | 317 | 5.2 | 10.4 | 0.00 | 0.00 | 0.00 | 44 | 1010.7 |
| 20260508145121 | 63 | 323 | 4.3 | 7.8 | 0.00 | 0.00 | 0.00 | 43 | 1010.7 |
| 20260508144123 | 64 | 274 | 4.3 | 6.1 | 0.00 | 0.00 | 0.00 | 42 | 1010.7 |
| 20260508143121 | 62 | 271 | 4.3 | 7.8 | 0.00 | 0.00 | 0.00 | 45 | 1010.9 |
| 20260508142122 | 62 | 305 | 3.5 | 7.0 | 0.00 | 0.00 | 0.00 | 46 | 1010.8 |
| 20260508141122 | 62 | 311 | 3.5 | 6.1 | 0.00 | 0.00 | 0.00 | 50 | 1011.0 |
| 20260508140143 | 61 | 327 | 4.3 | 8.7 | 0.00 | 0.00 | 0.00 | 49 | 1010.9 |
| 20260508135123 | 61 | 308 | 2.6 | 5.2 | 0.00 | 0.00 | 0.00 | 52 | 1010.9 |